QPF
0.01 0.01 0.01 0.01 0.01 0.01 0.03 0.03 0.02 0.01 0.01 0.01 0.00 0.01 0.01 0.01 0.00 0.00 0.00 0.00 0.00 0.00 0.01 0.01 0.01 0.01 0.01 0.01 0.01 0.01 0.02 0.03 0.04 0.03 0.02 0.01 0.01 0.02 0.03 0.04 0.05 0.05 0.05 0.04
0.01 0.01 0.01 0.01 0.01 0.01 0.02 0.01 0.01 0.01 0.01 0.00 0.00 0.00 0.00 0.00 0.00 0.00 0.00 0.00 0.00 0.01 0.01 0.01 0.01 0.01 0.01 0.01 0.01 0.01 0.02 0.03 0.04 0.03 0.02 0.01 0.01 0.01 0.02 0.03 0.04 0.06 0.06 0.06
0.02 0.01 0.01 0.01 0.01 0.01 0.01 0.01 0.01 0.01 0.01 0.00 0.00 0.00 0.00 0.00 0.00 0.00 0.00 0.00 0.00 0.01 0.01 0.01 0.01 0.01 0.01 0.01 0.01 0.01 0.02 0.02 0.03 0.03 0.02 0.02 0.02 0.03 0.03 0.03 0.03 0.04 0.05 0.05
0.03 0.01 0.02 0.01 0.00 0.01 0.01 0.01 0.01 0.01 0.01 0.01 0.00 0.00 0.00 0.00 0.00 0.01 0.00 0.00 0.00 0.01 0.01 0.01 0.01 0.01 0.01 0.01 0.01 0.02 0.02 0.02 0.02 0.02 0.02 0.02 0.02 0.02 0.02 0.02 0.03 0.03 0.03 0.03
0.03 0.02 0.01 0.00 0.00 0.00 0.01 0.01 0.01 0.00 0.00 0.00 0.00 0.00 0.00 0.00 0.00 0.01 0.01 0.01 0.00 0.00 0.00 0.01 0.01 0.02 0.02 0.01 0.01 0.01 0.02 0.02 0.02 0.02 0.02 0.03 0.02 0.02 0.02 0.02 0.02 0.02 0.01 0.02
0.03 0.03 0.01 0.00 0.00 0.00 0.01 0.01 0.00 0.00 0.00 0.00 0.00 0.00 0.00 0.00 0.00 0.01 0.01 0.00 0.00 0.01 0.00 0.00 0.01 0.01 0.02 0.01 0.01 0.01 0.01 0.01 0.02 0.02 0.02 0.03 0.03 0.02 0.02 0.03 0.02 0.02 0.01 0.02
0.02 0.02 0.01 0.00 0.00 0.00 0.01 0.00 0.00 0.00 0.00 0.00 0.00 0.00 0.00 0.00 0.00 0.01 0.01 0.01 0.01 0.01 0.01 0.01 0.01 0.01 0.02 0.01 0.01 0.01 0.01 0.01 0.01 0.02 0.03 0.02 0.01 0.02 0.02 0.02 0.01 0.01 0.01 0.01
0.02 0.03 0.01 0.00 0.00 0.01 0.01 0.00 0.00 0.00 0.00 0.00 0.00 0.00 0.00 0.00 0.00 0.00 0.01 0.01 0.01 0.01 0.01 0.01 0.01 0.01 0.01 0.01 0.01 0.01 0.02 0.02 0.02 0.02 0.02 0.03 0.02 0.02 0.02 0.02 0.01 0.01 0.01 0.01
0.02 0.01 0.01 0.00 0.01 0.01 0.00 0.00 0.00 0.00 0.00 0.00 0.00 0.00 0.00 0.00 0.00 0.00 0.01 0.01 0.01 0.01 0.01 0.01 0.01 0.01 0.01 0.01 0.02 0.02 0.02 0.02 0.03 0.02 0.02 0.03 0.03 0.02 0.02 0.01 0.01 0.01 0.01 0.01
0.01 0.00 0.00 0.00 0.00 0.00 0.00 0.00 0.00 0.01 0.01 0.01 0.00 0.00 0.00 0.00 0.00 0.00 0.01 0.01 0.01 0.01 0.01 0.01 0.01 0.01 0.01 0.01 0.02 0.02 0.01 0.02 0.02 0.02 0.02 0.03 0.02 0.02 0.02 0.02 0.02 0.01 0.01 0.01
0.01 0.01 0.00 0.00 0.00 0.00 0.01 0.01 0.01 0.01 0.01 0.00 0.00 0.00 0.00 0.00 0.00 0.00 0.01 0.01 0.01 0.01 0.01 0.01 0.01 0.01 0.01 0.01 0.02 0.02 0.02 0.02 0.02 0.02 0.01 0.02 0.02 0.02 0.02 0.02 0.03 0.02 0.02 0.02
0.01 0.00 0.01 0.01 0.01 0.01 0.01 0.01 0.00 0.00 0.00 0.00 0.00 0.00 0.00 0.00 0.00 0.00 0.01 0.01 0.01 0.01 0.01 0.01 0.01 0.01 0.01 0.01 0.02 0.02 0.02 0.02 0.02 0.01 0.01 0.02 0.02 0.02 0.02 0.02 0.02 0.02 0.02 0.02
0.01 0.01 0.01 0.01 0.01 0.01 0.01 0.01 0.01 0.01 0.01 0.00 0.00 0.00 0.00 0.00 0.00 0.00 0.01 0.01 0.01 0.02 0.01 0.01 0.02 0.01 0.01 0.01 0.02 0.02 0.02 0.02 0.02 0.01 0.01 0.02 0.02 0.02 0.02 0.02 0.02 0.02 0.02 0.02
0.01 0.01 0.00 0.01 0.01 0.01 0.01 0.01 0.01 0.01 0.01 0.00 0.01 0.01 0.01 0.00 0.00 0.00 0.00 0.01 0.01 0.02 0.02 0.02 0.02 0.02 0.02 0.02 0.02 0.02 0.02 0.02 0.02 0.01 0.01 0.01 0.02 0.02 0.02 0.02 0.02 0.02 0.02 0.02
0.00 0.01 0.01 0.01 0.01 0.01 0.01 0.01 0.01 0.01 0.00 0.00 0.00 0.00 0.00 0.01 0.01 0.01 0.01 0.01 0.01 0.01 0.02 0.02 0.03 0.02 0.01 0.02 0.02 0.03 0.03 0.03 0.02 0.02 0.01 0.01 0.02 0.02 0.01 0.01 0.01 0.01 0.02 0.02
0.01 0.01 0.01 0.01 0.01 0.01 0.01 0.01 0.01 0.00 0.00 0.00 0.00 0.00 0.00 0.00 0.01 0.01 0.01 0.01 0.01 0.01 0.01 0.02 0.03 0.03 0.02 0.01 0.02 0.02 0.03 0.04 0.03 0.02 0.01 0.01 0.01 0.02 0.02 0.01 0.01 0.01 0.01 0.02
0.01 0.01 0.01 0.01 0.01 0.00 0.00 0.00 0.00 0.00 0.00 0.00 0.00 0.01 0.01 0.01 0.00 0.00 0.01 0.01 0.01 0.01 0.01 0.02 0.02 0.03 0.02 0.01 0.01 0.01 0.02 0.03 0.03 0.02 0.01 0.01 0.01 0.01 0.02 0.02 0.01 0.01 0.01 0.02
0.01 0.01 0.01 0.01 0.00 0.00 0.00 0.00 0.00 0.00 0.00 0.00 0.01 0.01 0.01 0.01 0.01 0.01 0.01 0.01 0.01 0.01 0.01 0.02 0.02 0.02 0.02 0.02 0.02 0.01 0.02 0.02 0.01 0.01 0.01 0.01 0.01 0.01 0.01 0.02 0.02 0.01 0.02 0.02
0.01 0.01 0.00 0.00 0.00 0.00 0.00 0.00 0.00 0.00 0.00 0.01 0.01 0.01 0.01 0.01 0.01 0.01 0.01 0.01 0.01 0.01 0.01 0.01 0.02 0.02 0.02 0.03 0.03 0.02 0.02 0.02 0.01 0.01 0.01 0.01 0.01 0.01 0.01 0.01 0.01 0.01 0.02 0.02
0.00 0.00 0.00 0.00 0.00 0.00 0.01 0.00 0.00 0.00 0.00 0.01 0.01 0.01 0.01 0.01 0.01 0.01 0.01 0.01 0.01 0.02 0.01 0.02 0.02 0.02 0.02 0.02 0.03 0.02 0.03 0.02 0.02 0.02 0.02 0.01 0.01 0.01 0.01 0.01 0.01 0.01 0.02 0.02
0.00 0.00 0.00 0.00 0.00 0.00 0.00 0.01 0.01 0.01 0.00 0.00 0.01 0.01 0.01 0.01 0.01 0.02 0.01 0.01 0.01 0.01 0.01 0.01 0.02 0.02 0.02 0.02 0.02 0.02 0.02 0.02 0.02 0.02 0.02 0.01 0.01 0.01 0.01 0.01 0.01 0.01 0.02 0.02
0.00 0.00 0.00 0.00 0.00 0.00 0.00 0.00 0.01 0.01 0.00 0.01 0.01 0.01 0.01 0.01 0.01 0.01 0.02 0.02 0.01 0.01 0.02 0.01 0.02 0.02 0.02 0.02 0.02 0.02 0.02 0.02 0.02 0.02 0.01 0.01 0.01 0.01 0.01 0.01 0.01 0.02 0.02 0.02
0.00 0.00 0.00 0.00 0.00 0.00 0.00 0.00 0.01 0.01 0.01 0.01 0.01 0.01 0.01 0.01 0.01 0.01 0.01 0.01 0.02 0.02 0.02 0.02 0.02 0.02 0.02 0.02 0.01 0.01 0.01 0.01 0.01 0.01 0.01 0.01 0.01 0.01 0.01 0.01 0.01 0.02 0.02 0.02
0.00 0.00 0.00 0.00 0.00 0.00 0.00 0.00 0.01 0.01 0.01 0.01 0.01 0.02 0.01 0.01 0.01 0.01 0.01 0.01 0.02 0.02 0.02 0.02 0.02 0.02 0.02 0.02 0.01 0.01 0.01 0.01 0.01 0.01 0.01 0.01 0.01 0.01 0.01 0.02 0.02 0.02 0.03 0.03
0.00 0.00 0.00 0.00 0.00 0.01 0.01 0.01 0.01 0.01 0.01 0.01 0.01 0.01 0.01 0.01 0.01 0.01 0.01 0.01 0.02 0.02 0.02 0.02 0.02 0.02 0.02 0.02 0.02 0.02 0.02 0.02 0.02 0.02 0.02 0.02 0.02 0.02 0.02 0.02 0.02 0.03 0.02 0.02
0.00 0.00 0.00 0.00 0.01 0.01 0.01 0.01 0.01 0.01 0.01 0.01 0.01 0.02 0.02 0.02 0.02 0.02 0.01 0.02 0.02 0.02 0.02 0.02 0.02 0.02 0.01 0.01 0.01 0.02 0.02 0.02 0.01 0.02 0.02 0.02 0.02 0.02 0.02 0.02 0.02 0.02 0.02 0.02
0.00 0.00 0.00 0.00 0.00 0.01 0.01 0.01 0.01 0.01 0.01 0.01 0.01 0.02 0.02 0.02 0.02 0.02 0.02 0.02 0.02 0.02 0.02 0.02 0.01 0.01 0.01 0.01 0.01 0.01 0.01 0.01 0.01 0.01 0.02 0.02 0.02 0.02 0.02 0.02 0.01 0.01 0.02 0.02
MSLP
1024.16 1023.47 1022.77 1022.13 1021.60 1021.23 1021.02 1020.97 1021.05 1021.20 1021.36 1021.48 1021.51 1021.44 1021.28 1021.04 1020.76 1020.49 1020.26 1020.10 1020.02 1020.00 1020.02 1020.05 1020.05 1020.00 1019.88 1019.69 1019.45 1019.19 1018.95 1018.75 1018.62 1018.57 1018.59 1018.69 1018.83 1019.00 1019.17 1019.34 1019.50 1019.65 1019.82 1020.01
1025.47 1024.93 1024.35 1023.79 1023.29 1022.89 1022.62 1022.47 1022.42 1022.43 1022.47 1022.48 1022.42 1022.29 1022.09 1021.83 1021.54 1021.26 1021.02 1020.84 1020.72 1020.66 1020.64 1020.61 1020.57 1020.47 1020.31 1020.10 1019.84 1019.57 1019.31 1019.09 1018.93 1018.85 1018.85 1018.90 1018.99 1019.10 1019.21 1019.31 1019.40 1019.49 1019.58 1019.70
1026.67 1026.17 1025.62 1025.06 1024.53 1024.07 1023.70 1023.45 1023.28 1023.18 1023.12 1023.05 1022.95 1022.79 1022.58 1022.33 1022.05 1021.78 1021.53 1021.33 1021.18 1021.07 1020.99 1020.92 1020.82 1020.69 1020.51 1020.28 1020.02 1019.76 1019.51 1019.30 1019.16 1019.07 1019.05 1019.09 1019.14 1019.21 1019.27 1019.32 1019.34 1019.36 1019.39 1019.44
1027.69 1027.15 1026.54 1025.90 1025.29 1024.73 1024.27 1023.91 1023.66 1023.48 1023.36 1023.26 1023.15 1023.01 1022.82 1022.60 1022.35 1022.09 1021.84 1021.61 1021.42 1021.27 1021.13 1021.00 1020.85 1020.68 1020.48 1020.25 1020.01 1019.76 1019.54 1019.37 1019.24 1019.17 1019.16 1019.18 1019.22 1019.26 1019.28 1019.28 1019.26 1019.23 1019.20 1019.19
1028.45 1027.79 1027.06 1026.32 1025.60 1024.95 1024.40 1023.97 1023.66 1023.45 1023.31 1023.22 1023.13 1023.03 1022.89 1022.71 1022.49 1022.25 1022.00 1021.75 1021.51 1021.30 1021.10 1020.90 1020.71 1020.50 1020.28 1020.05 1019.82 1019.60 1019.41 1019.26 1019.16 1019.10 1019.09 1019.11 1019.13 1019.16 1019.16 1019.13 1019.08 1019.01 1018.93 1018.88
1028.88 1028.07 1027.21 1026.35 1025.53 1024.81 1024.20 1023.74 1023.41 1023.20 1023.08 1023.02 1022.99 1022.94 1022.85 1022.72 1022.53 1022.30 1022.04 1021.76 1021.48 1021.20 1020.94 1020.69 1020.44 1020.20 1019.95 1019.72 1019.49 1019.29 1019.11 1018.98 1018.89 1018.84 1018.82 1018.83 1018.85 1018.85 1018.84 1018.79 1018.73 1018.64 1018.55 1018.47
1028.90 1027.96 1027.00 1026.05 1025.17 1024.41 1023.79 1023.32 1023.01 1022.83 1022.76 1022.75 1022.77 1022.78 1022.74 1022.64 1022.48 1022.25 1021.97 1021.66 1021.33 1021.00 1020.68 1020.37 1020.07 1019.79 1019.52 1019.28 1019.05 1018.84 1018.67 1018.53 1018.44 1018.37 1018.34 1018.33 1018.33 1018.31 1018.29 1018.24 1018.17 1018.09 1018.00 1017.92
1028.48 1027.47 1026.45 1025.47 1024.59 1023.84 1023.25 1022.82 1022.55 1022.42 1022.40 1022.44 1022.50 1022.55 1022.54 1022.46 1022.30 1022.07 1021.77 1021.42 1021.05 1020.67 1020.30 1019.94 1019.61 1019.30 1019.01 1018.75 1018.51 1018.29 1018.10 1017.95 1017.82 1017.73 1017.67 1017.62 1017.59 1017.56 1017.52 1017.47 1017.41 1017.34 1017.27 1017.21
1027.66 1026.64 1025.64 1024.70 1023.87 1023.18 1022.66 1022.29 1022.08 1022.00 1022.02 1022.09 1022.17 1022.23 1022.22 1022.14 1021.97 1021.71 1021.39 1021.01 1020.61 1020.19 1019.79 1019.40 1019.05 1018.72 1018.41 1018.14 1017.88 1017.65 1017.44 1017.25 1017.09 1016.95 1016.85 1016.76 1016.69 1016.63 1016.58 1016.54 1016.49 1016.44 1016.39 1016.35
1026.52 1025.57 1024.66 1023.82 1023.10 1022.51 1022.07 1021.78 1021.62 1021.58 1021.61 1021.68 1021.75 1021.78 1021.75 1021.63 1021.44 1021.15 1020.80 1020.40 1019.98 1019.55 1019.13 1018.73 1018.37 1018.04 1017.73 1017.45 1017.19 1016.94 1016.70 1016.48 1016.28 1016.10 1015.94 1015.81 1015.70 1015.61 1015.55 1015.50 1015.46 1015.43 1015.41 1015.39
1025.21 1024.39 1023.62 1022.93 1022.34 1021.88 1021.53 1021.31 1021.18 1021.14 1021.15 1021.18 1021.20 1021.18 1021.09 1020.93 1020.69 1020.37 1020.00 1019.58 1019.15 1018.72 1018.31 1017.92 1017.57 1017.25 1016.96 1016.68 1016.42 1016.17 1015.92 1015.68 1015.44 1015.22 1015.01 1014.84 1014.69 1014.58 1014.49 1014.44 1014.40 1014.38 1014.37 1014.38
1023.89 1023.24 1022.64 1022.11 1021.67 1021.33 1021.06 1020.88 1020.76 1020.69 1020.64 1020.60 1020.53 1020.43 1020.26 1020.03 1019.74 1019.39 1018.99 1018.57 1018.14 1017.73 1017.33 1016.97 1016.65 1016.36 1016.09 1015.84 1015.60 1015.35 1015.11 1014.85 1014.60 1014.36 1014.12 1013.92 1013.74 1013.60 1013.49 1013.42 1013.37 1013.36 1013.35 1013.36
1022.74 1022.25 1021.82 1021.45 1021.14 1020.88 1020.67 1020.49 1020.35 1020.21 1020.08 1019.93 1019.76 1019.55 1019.30 1018.99 1018.64 1018.26 1017.85 1017.42 1017.01 1016.61 1016.25 1015.92 1015.63 1015.37 1015.14 1014.92 1014.71 1014.49 1014.26 1014.02 1013.77 1013.52 1013.28 1013.05 1012.86 1012.69 1012.57 1012.47 1012.42 1012.39 1012.38 1012.38
1021.85 1021.50 1021.21 1020.97 1020.75 1020.55 1020.35 1020.15 1019.94 1019.72 1019.48 1019.21 1018.92 1018.60 1018.25 1017.88 1017.48 1017.06 1016.63 1016.21 1015.81 1015.44 1015.09 1014.80 1014.54 1014.31 1014.11 1013.93 1013.76 1013.57 1013.38 1013.17 1012.94 1012.70 1012.46 1012.24 1012.03 1011.85 1011.71 1011.60 1011.52 1011.48 1011.45 1011.44
1021.26 1021.02 1020.83 1020.66 1020.49 1020.30 1020.09 1019.83 1019.54 1019.21 1018.84 1018.46 1018.05 1017.63 1017.20 1016.76 1016.31 1015.87 1015.43 1015.01 1014.61 1014.25 1013.93 1013.64 1013.40 1013.20 1013.03 1012.88 1012.73 1012.59 1012.43 1012.25 1012.06 1011.85 1011.64 1011.42 1011.22 1011.04 1010.89 1010.76 1010.67 1010.61 1010.56 1010.54
1020.93 1020.76 1020.62 1020.48 1020.32 1020.11 1019.84 1019.50 1019.11 1018.67 1018.19 1017.69 1017.19 1016.68 1016.18 1015.69 1015.21 1014.74 1014.29 1013.87 1013.47 1013.11 1012.78 1012.49 1012.25 1012.05 1011.89 1011.75 1011.63 1011.51 1011.39 1011.25 1011.10 1010.93 1010.74 1010.55 1010.37 1010.19 1010.04 1009.91 1009.81 1009.73 1009.68 1009.65
1020.78 1020.62 1020.49 1020.35 1020.16 1019.89 1019.55 1019.13 1018.64 1018.10 1017.52 1016.93 1016.34 1015.77 1015.21 1014.69 1014.19 1013.71 1013.25 1012.81 1012.40 1012.02 1011.67 1011.36 1011.10 1010.88 1010.70 1010.56 1010.44 1010.34 1010.24 1010.13 1010.02 1009.88 1009.73 1009.57 1009.41 1009.25 1009.11 1008.99 1008.89 1008.82 1008.77 1008.74
1020.68 1020.52 1020.37 1020.18 1019.94 1019.61 1019.19 1018.68 1018.10 1017.47 1016.81 1016.15 1015.50 1014.89 1014.31 1013.76 1013.25 1012.76 1012.29 1011.83 1011.40 1010.98 1010.60 1010.25 1009.94 1009.68 1009.46 1009.29 1009.16 1009.06 1008.97 1008.89 1008.79 1008.69 1008.57 1008.45 1008.31 1008.18 1008.07 1007.96 1007.89 1007.84 1007.81 1007.80
1020.53 1020.34 1020.15 1019.91 1019.61 1019.21 1018.71 1018.12 1017.47 1016.77 1016.05 1015.34 1014.66 1014.03 1013.43 1012.88 1012.36 1011.86 1011.37 1010.90 1010.43 1009.97 1009.54 1009.13 1008.76 1008.45 1008.18 1007.97 1007.81 1007.69 1007.59 1007.51 1007.44 1007.36 1007.28 1007.18 1007.08 1006.99 1006.90 1006.84 1006.79 1006.77 1006.78 1006.81
1020.26 1020.03 1019.79 1019.51 1019.13 1018.66 1018.10 1017.45 1016.73 1015.98 1015.23 1014.49 1013.80 1013.15 1012.55 1012.00 1011.47 1010.97 1010.47 1009.97 1009.46 1008.96 1008.47 1008.00 1007.57 1007.18 1006.86 1006.60 1006.39 1006.25 1006.14 1006.06 1005.99 1005.93 1005.88 1005.82 1005.76 1005.70 1005.66 1005.63 1005.63 1005.66 1005.71 1005.78
1019.85 1019.59 1019.31 1018.97 1018.53 1018.00 1017.37 1016.67 1015.91 1015.13 1014.34 1013.59 1012.89 1012.24 1011.64 1011.09 1010.56 1010.04 1009.53 1009.00 1008.45 1007.91 1007.36 1006.83 1006.34 1005.90 1005.52 1005.21 1004.96 1004.78 1004.66 1004.57 1004.52 1004.48 1004.45 1004.42 1004.40 1004.38 1004.39 1004.41 1004.46 1004.53 1004.63 1004.75
1019.35 1019.06 1018.73 1018.33 1017.85 1017.26 1016.58 1015.83 1015.03 1014.22 1013.42 1012.66 1011.95 1011.30 1010.70 1010.14 1009.60 1009.07 1008.53 1007.97 1007.40 1006.81 1006.22 1005.64 1005.10 1004.61 1004.18 1003.84 1003.56 1003.36 1003.22 1003.13 1003.08 1003.06 1003.05 1003.06 1003.08 1003.11 1003.16 1003.22 1003.32 1003.44 1003.58 1003.74
1018.81 1018.49 1018.12 1017.67 1017.12 1016.48 1015.75 1014.96 1014.13 1013.30 1012.48 1011.71 1010.99 1010.33 1009.72 1009.15 1008.60 1008.05 1007.49 1006.91 1006.30 1005.68 1005.06 1004.45 1003.87 1003.35 1002.90 1002.53 1002.24 1002.02 1001.88 1001.80 1001.76 1001.76 1001.78 1001.82 1001.87 1001.93 1002.02 1002.13 1002.26 1002.42 1002.60 1002.80
1018.29 1017.94 1017.52 1017.02 1016.42 1015.72 1014.95 1014.12 1013.26 1012.40 1011.57 1010.78 1010.05 1009.37 1008.75 1008.16 1007.59 1007.02 1006.43 1005.83 1005.20 1004.55 1003.91 1003.28 1002.69 1002.16 1001.70 1001.32 1001.03 1000.83 1000.69 1000.62 1000.60 1000.62 1000.67 1000.73 1000.81 1000.91 1001.03 1001.16 1001.32 1001.50 1001.71 1001.93
1017.85 1017.45 1016.98 1016.42 1015.76 1015.01 1014.19 1013.33 1012.44 1011.56 1010.71 1009.90 1009.16 1008.46 1007.82 1007.20 1006.61 1006.01 1005.40 1004.78 1004.13 1003.48 1002.82 1002.20 1001.61 1001.08 1000.63 1000.27 999.99 999.80 999.69 999.64 999.64 999.68 999.75 999.83 999.94 1000.05 1000.19 1000.34 1000.51 1000.70 1000.92 1001.15
1017.50 1017.04 1016.51 1015.88 1015.17 1014.37 1013.50 1012.60 1011.69 1010.79 1009.92 1009.10 1008.34 1007.63 1006.96 1006.32 1005.70 1005.08 1004.45 1003.81 1003.16 1002.50 1001.85 1001.24 1000.66 1000.16 999.73 999.39 999.14 998.97 998.88 998.85 998.87 998.93 999.02 999.12 999.23 999.36 999.49 999.65 999.82 1000.01 1000.23 1000.47
1017.22 1016.69 1016.09 1015.40 1014.62 1013.77 1012.88 1011.95 1011.02 1010.11 1009.23 1008.40 1007.62 1006.90 1006.21 1005.56 1004.92 1004.28 1003.64 1002.99 1002.33 1001.68 1001.05 1000.45 999.90 999.42 999.02 998.71 998.48 998.34 998.27 998.26 998.30 998.37 998.46 998.57 998.68 998.80 998.93 999.08 999.24 999.42 999.63 999.87
Thickness
5395 5404 5404 5406 5409 5407 5404 5408 5410 5421 5424 5439 5440 5438 5439 5438 5438 5439 5440 5441 5442 5442 5442 5443 5446 5448 5450 5452 5455 5457 5459 5461 5462 5463 5464 5464 5465 5465 5466 5467 5468 5468 5469 5470
5387 5395 5393 5397 5404 5404 5407 5408 5407 5412 5421 5431 5429 5429 5429 5429 5431 5433 5434 5435 5436 5435 5435 5436 5438 5440 5442 5444 5446 5448 5449 5451 5453 5454 5454 5455 5455 5456 5457 5457 5457 5458 5460 5461
5378 5379 5386 5391 5401 5404 5404 5404 5404 5410 5422 5422 5421 5424 5424 5424 5425 5426 5427 5428 5428 5429 5429 5430 5430 5432 5433 5436 5437 5438 5440 5441 5443 5444 5445 5445 5446 5446 5447 5448 5448 5449 5451 5452
5361 5366 5373 5403 5403 5403 5401 5403 5401 5405 5410 5412 5415 5416 5417 5417 5416 5417 5419 5421 5421 5422 5422 5423 5423 5424 5426 5427 5428 5429 5430 5431 5433 5435 5435 5436 5436 5437 5439 5440 5440 5441 5442 5443
5351 5356 5371 5393 5397 5393 5392 5399 5402 5401 5404 5405 5405 5407 5409 5412 5410 5411 5412 5413 5414 5415 5415 5416 5416 5416 5417 5418 5419 5420 5421 5422 5424 5425 5426 5427 5428 5429 5430 5431 5432 5432 5433 5433
5343 5351 5362 5393 5394 5390 5388 5390 5399 5396 5397 5395 5396 5397 5405 5406 5404 5404 5405 5406 5407 5408 5408 5408 5408 5408 5409 5410 5411 5412 5413 5415 5416 5417 5418 5419 5421 5421 5422 5422 5423 5424 5424 5424
5340 5342 5360 5380 5381 5383 5379 5388 5394 5390 5389 5388 5388 5391 5395 5395 5395 5396 5397 5398 5399 5400 5400 5400 5401 5401 5401 5402 5403 5405 5406 5407 5408 5409 5410 5411 5412 5412 5412 5413 5413 5413 5414 5415
5331 5338 5361 5377 5372 5373 5379 5382 5381 5381 5382 5381 5381 5383 5384 5385 5386 5388 5388 5390 5391 5391 5391 5391 5392 5393 5394 5395 5397 5397 5398 5400 5401 5402 5403 5404 5403 5403 5403 5403 5403 5404 5404 5406
5348 5362 5370 5369 5369 5372 5371 5371 5373 5373 5375 5374 5373 5375 5376 5376 5377 5378 5380 5381 5381 5382 5382 5382 5383 5385 5386 5388 5389 5390 5391 5392 5393 5394 5395 5395 5395 5394 5394 5394 5394 5395 5396 5397
5342 5356 5360 5361 5361 5363 5363 5364 5366 5366 5367 5366 5366 5367 5367 5368 5368 5369 5371 5372 5372 5373 5373 5374 5375 5377 5378 5380 5381 5382 5382 5383 5385 5386 5387 5387 5387 5387 5387 5386 5386 5387 5388 5390
5338 5349 5351 5357 5357 5359 5358 5358 5358 5359 5360 5359 5359 5359 5359 5359 5360 5361 5363 5364 5364 5365 5366 5366 5368 5370 5372 5373 5374 5374 5375 5376 5377 5378 5379 5379 5379 5379 5380 5381 5382 5382 5382 5382
5347 5351 5349 5355 5356 5354 5352 5352 5352 5351 5352 5352 5352 5352 5352 5352 5352 5353 5355 5356 5356 5357 5358 5359 5360 5363 5365 5366 5367 5367 5368 5369 5370 5370 5371 5371 5371 5372 5374 5375 5375 5376 5376 5376
5346 5348 5346 5348 5349 5348 5347 5347 5346 5345 5345 5345 5345 5345 5345 5345 5346 5346 5346 5347 5349 5350 5351 5352 5353 5356 5358 5359 5360 5361 5361 5362 5363 5363 5364 5364 5364 5365 5365 5366 5368 5368 5369 5369
5339 5339 5340 5342 5341 5341 5340 5340 5339 5338 5338 5338 5338 5339 5338 5338 5338 5339 5340 5341 5341 5342 5343 5344 5346 5348 5350 5352 5353 5354 5355 5356 5357 5356 5356 5357 5357 5358 5359 5359 5359 5359 5360 5361
5334 5333 5334 5335 5334 5333 5333 5332 5331 5331 5331 5332 5332 5331 5331 5332 5332 5333 5333 5333 5334 5334 5335 5337 5339 5341 5343 5344 5346 5347 5348 5349 5349 5349 5349 5350 5350 5350 5351 5351 5351 5351 5351 5352
5330 5328 5328 5328 5328 5327 5326 5325 5324 5325 5324 5325 5324 5325 5325 5325 5325 5325 5325 5326 5326 5328 5329 5330 5332 5334 5336 5337 5338 5339 5341 5343 5343 5342 5342 5342 5342 5342 5342 5342 5342 5343 5343 5343
5323 5323 5323 5322 5322 5321 5319 5319 5318 5318 5318 5318 5318 5318 5318 5318 5318 5319 5319 5319 5320 5321 5322 5323 5325 5327 5329 5330 5330 5332 5333 5334 5335 5335 5335 5335 5335 5335 5335 5334 5335 5335 5335 5335
5321 5322 5320 5319 5317 5315 5315 5314 5313 5313 5313 5313 5313 5312 5312 5312 5312 5313 5313 5312 5313 5314 5316 5317 5319 5321 5322 5323 5324 5324 5325 5326 5326 5327 5327 5327 5327 5327 5327 5327 5327 5327 5327 5327
5316 5316 5314 5313 5312 5310 5309 5308 5308 5308 5307 5307 5306 5306 5306 5306 5306 5306 5306 5306 5307 5309 5311 5312 5315 5315 5316 5317 5318 5318 5318 5318 5319 5319 5320 5321 5320 5319 5319 5319 5319 5319 5319 5319
5311 5310 5309 5308 5307 5305 5303 5302 5302 5301 5301 5301 5301 5301 5300 5300 5300 5300 5300 5301 5303 5305 5306 5307 5309 5310 5311 5311 5313 5312 5312 5312 5312 5312 5312 5312 5312 5311 5311 5311 5311 5311 5311 5311
5304 5303 5302 5301 5299 5298 5297 5296 5295 5295 5295 5295 5295 5295 5295 5294 5294 5294 5295 5297 5298 5300 5301 5303 5304 5305 5305 5306 5307 5306 5306 5305 5305 5305 5305 5305 5305 5305 5304 5304 5304 5304 5304 5304
5296 5296 5295 5294 5292 5291 5291 5290 5290 5289 5289 5289 5290 5290 5289 5289 5289 5289 5291 5292 5293 5295 5296 5297 5298 5300 5301 5302 5301 5300 5300 5299 5299 5298 5298 5298 5298 5298 5297 5297 5297 5297 5298 5298
5290 5289 5288 5287 5286 5284 5284 5284 5284 5284 5283 5284 5284 5284 5284 5284 5284 5285 5286 5287 5288 5290 5291 5292 5293 5294 5295 5294 5293 5293 5292 5292 5292 5292 5291 5291 5291 5291 5291 5291 5291 5291 5291 5291
5284 5283 5281 5279 5278 5278 5278 5278 5278 5278 5278 5277 5278 5278 5278 5278 5278 5278 5280 5281 5283 5284 5285 5286 5287 5288 5288 5286 5286 5285 5285 5285 5285 5285 5285 5285 5284 5284 5285 5285 5285 5285 5285 5285
5276 5274 5273 5272 5272 5272 5272 5272 5272 5272 5272 5271 5271 5271 5271 5271 5272 5272 5273 5274 5276 5277 5277 5278 5279 5280 5278 5278 5278 5278 5278 5278 5278 5278 5279 5279 5279 5279 5279 5279 5279 5279 5279 5279
5268 5267 5266 5266 5265 5265 5266 5266 5266 5266 5266 5266 5266 5265 5265 5265 5265 5265 5266 5266 5267 5268 5268 5268 5269 5270 5270 5270 5270 5270 5271 5271 5272 5272 5272 5273 5273 5273 5273 5273 5273 5274 5274 5273
5260 5259 5259 5260 5260 5259 5260 5260 5260 5260 5260 5260 5259 5259 5258 5258 5258 5258 5259 5259 5259 5260 5260 5260 5261 5261 5262 5263 5263 5264 5264 5264 5265 5265 5266 5266 5266 5267 5267 5267 5268 5268 5268 5268